Reflectivity
-20 -20 -20 -20 -20 -20 -20 -20 -20 -20 -20 -20 -20 -20 -20 -20 -20 -20 -20 -20 -20 -20 -20 -10 5 -5 8 15 14 12 14 18 9 28 31 27 26 25 27 29 18 -1 14
-20 -18 -20 -20 -20 -20 -20 -20 -20 -20 -20 -20 -20 -20 -20 -20 -20 -20 -20 2 -20 -20 -20 -18 5 0 14 1 15 15 13 24 36 26 40 35 37 31 30 19 -20 -20 13
-20 -20 -20 -20 -20 -20 -20 -20 -20 -20 -20 -20 -20 -20 -20 -20 8 9 8 -20 -20 -20 -20 -14 -18 -4 8 26 29 21 18 34 20 28 23 34 35 34 23 9 -0 13 10
-20 -20 -20 -20 -20 -20 -20 -20 -20 -20 -20 -20 -20 -20 8 18 -5 -20 -20 -20 -16 -14 15 10 -0 16 24 30 25 14 28 18 32 37 36 34 33 23 8 7 -11 -3 -5
-20 -20 -20 -20 -20 -20 -20 -20 -20 -20 -20 -20 -20 19 17 19 19 -11 -20 -20 -16 -11 22 9 -0 21 29 33 27 20 28 27 37 35 26 26 20 2 -9 -20 -14 -7 10
-20 -20 -20 -20 -20 -20 -20 -20 -20 -20 -20 -20 -15 20 18 22 18 12 -20 -20 -20 -14 17 18 14 28 27 31 32 19 26 26 33 26 9 11 7 -4 -20 -20 7 3 1
-20 -20 -20 -20 -20 -20 -20 -20 -20 -20 -20 -20 -13 11 20 22 23 9 -8 -16 -17 4 19 21 25 26 24 26 26 27 21 32 35 28 23 17 -12 -20 -18 0 -19 -20 -20
-20 -20 -20 -20 -20 -20 -20 -20 -20 -20 -20 -20 -8 5 16 20 20 -10 5 -6 -18 13 17 24 21 21 22 9 21 20 16 23 24 25 30 22 17 -20 -19 -16 -20 -20 -20
-20 -20 -20 -20 -20 -20 -20 -20 -20 -20 -20 -20 -20 -20 -20 -17 13 13 -3 -10 -15 -3 19 9 -20 14 25 14 18 2 10 11 22 29 32 33 29 -19 -15 -12 9 13 12
-20 -20 -20 -20 -20 -20 -20 -20 -18 0 24 17 -13 8 6 -20 -3 12 6 -16 -7 11 13 11 -8 -20 18 29 10 10 13 14 22 22 22 24 20 26 -2 10 4 -20 -20
-20 -20 -20 -20 -20 -20 -20 -17 -7 22 23 -7 -20 -20 -12 12 12 16 19 -2 -10 16 22 2 -10 -15 -17 15 27 26 27 27 24 23 16 27 25 25 8 -10 -20 -20 -20
-20 -20 -20 -20 -20 -20 -20 -20 -12 22 -1 3 4 -17 -12 -3 21 13 -6 14 12 9 7 3 6 4 -5 2 -2 -19 8 17 9 5 23 21 13 -8 -20 -20 -20 -20 -19
-20 -19 -13 -20 -20 -20 -20 -20 -20 -20 -16 -2 2 10 -3 -15 14 5 3 16 17 16 2 24 26 13 -1 12 -10 -17 -20 -20 -7 0 14 3 3 15 6 -20 -20 -20 -20
-20 -20 -20 -20 -19 -20 -20 -20 -20 -20 3 -1 10 -15 10 10 -20 -19 -17 3 21 14 18 23 30 16 17 1 -10 -17 -20 -20 -20 -20 1 -2 2 -6 -19 -20 -20 -20 -20
-20 -20 -20 -20 -20 -20 -20 -20 -20 -20 -11 -6 -19 -20 5 4 -18 6 8 4 20 23 16 10 13 6 -5 -14 -18 -11 7 -20 -20 -20 -17 6 -17 -20 -20 -20 -20 -20 -20
-20 -20 1 3 -10 -16 -20 -20 -20 5 -18 1 -8 -12 -14 18 9 -8 3 22 18 1 -4 0 -14 -7 6 10 11 14 7 8 -1 -19 -20 -20 -9 -19 -20 -20 -20 -20 -20
-20 -13 -13 17 12 23 8 -20 -20 -20 -6 2 1 -19 -2 11 10 11 18 9 14 -3 -8 -9 10 12 19 17 14 11 12 -11 -20 -20 -20 -20 -20 -20 -20 -20 -20 -20 -20
-20 -10 -8 3 -18 -16 -9 -20 -20 -20 -10 -3 -13 -11 -20 3 7 -10 21 14 -8 -10 -17 2 2 -7 11 12 12 4 -20 -20 -20 -20 -20 -20 -20 -20 -20 -20 -20 -20 -20
-20 -20 -20 -20 16 5 35 30 -19 -20 -20 -20 -20 -8 -9 -20 7 18 -6 -20 -20 -20 -20 -9 10 8 8 9 -6 -20 -20 -20 -20 -20 -20 -20 -20 -20 -20 -20 -20 -20 -18
-20 10 7 -14 15 33 16 23 -3 -17 -20 -20 -20 -20 -20 -17 -19 -18 -19 -20 -20 -20 -1 -16 -18 -17 -20 -20 -20 -20 -20 -20 -20 -20 -20 -20 -20 -20 -20 -20 -20 -20 -20
-16 2 17 11 -13 10 5 10 -4 -18 -20 -20 -20 -10 0 -20 -20 -20 -20 -20 -20 -20 -20 -16 -15 -19 -20 -20 -20 -20 -20 -20 -20 -10 -20 -20 -20 -20 -20 -20 -20 -20 -20
-20 -17 -0 3 -1 5 -7 3 -20 -20 -20 -20 -20 -16 -12 -20 -20 -20 -20 -20 -20 -20 -20 -20 -20 -20 -20 -20 -20 -20 -8 -10 -20 -20 -20 -20 -20 -20 -20 -20 -20 -20 -20
-18 -20 -9 -14 2 13 -13 -20 -20 -20 -20 -20 -20 -20 -20 -20 -20 -20 -17 -8 -20 -19 -20 -20 -20 -20 -18 -18 -17 -17 -20 -16 -16 -14 -20 -20 -20 -20 -20 -20 -20 -20 -20
-19 -5 7 -6 -20 -20 -20 -20 -20 -7 -18 -20 -20 -20 -20 -20 -19 -16 -7 6 -17 -18 -19 -20 -20 -20 -20 -20 -20 -20 -20 -20 -20 -20 -20 -20 -20 -20 -20 -20 -20 -20 -20
-19 -10 -20 -20 -20 -19 -20 -20 -20 -20 -20 -20 -20 -20 -20 -19 -19 -19 -20 -17 -16 -14 -13 -18 -14 -0 5 -15 -18 -12 -17 -18 -20 -20 -20 -20 -20 -20 -20 -20 -20 -20 -20
-14 -6 3 2 -1 -6 -19 -20 -20 -20 -20 -20 -20 -20 -20 -20 -20 -19 -19 -19 -18 -13 -3 5 7 9 8 7 6 -0 -8 -17 -19 -20 -20 -19 -18 -20 -20 -20 -20 -20 -20
Wind_Speed
3 3 5 5 5 5 5 7 7 5 7 8 7 6 6 6 5 5 5 5 8 7 6 6 8 6 4 4 6 10 11 7 9 3 4 11 13 11 9 7 8 9 10
3 4 4 4 4 6 6 8 5 8 6 7 6 6 7 7 6 7 7 8 9 7 5 6 8 6 4 8 6 9 9 12 12 15 12 9 9 11 11 11 8 8 9
3 2 2 4 5 7 8 8 7 6 7 6 6 7 9 8 7 8 9 9 8 7 5 6 8 6 5 3 7 7 6 6 10 12 10 7 6 10 11 9 9 10 8
3 2 3 5 5 6 7 7 8 7 8 8 10 9 10 9 11 12 12 9 8 6 4 4 4 6 6 5 6 11 11 11 11 10 10 10 10 11 10 11 9 7 8
2 2 4 5 5 6 7 7 8 7 8 10 8 10 9 9 8 8 7 7 7 6 5 4 5 8 10 6 4 10 12 10 9 11 10 10 10 12 12 8 8 9 7
4 5 5 5 6 7 7 8 7 7 8 8 8 10 9 8 11 12 8 6 7 7 6 5 6 10 7 8 7 15 16 13 12 11 9 13 14 12 9 11 11 10 7
4 4 5 5 6 7 7 7 7 7 6 9 6 7 8 8 10 12 13 6 7 6 6 5 3 2 3 5 8 10 17 19 18 14 14 13 15 15 15 14 13 12 7
4 5 6 6 6 6 6 7 8 7 6 5 5 6 7 7 11 11 13 7 6 7 7 7 6 5 4 5 8 6 11 11 12 9 14 15 11 14 14 13 14 9 7
6 6 5 5 6 6 8 10 8 6 6 5 4 5 7 6 11 12 12 7 7 8 7 7 6 6 8 11 8 9 9 8 10 12 12 13 15 20 15 14 11 11 6
6 5 4 5 5 9 10 9 5 3 4 3 4 4 6 6 9 13 13 6 8 6 6 6 10 7 10 9 7 8 9 8 9 7 8 13 18 19 25 14 15 13 7
3 4 5 5 5 7 6 3 4 4 4 3 3 3 4 5 6 13 16 7 7 7 6 4 4 11 11 11 9 8 7 9 9 9 8 9 11 12 11 8 12 12 8
4 5 7 5 4 3 3 4 2 3 2 3 2 2 2 4 5 9 15 11 9 8 7 5 6 14 13 11 7 10 14 11 7 8 8 7 10 10 10 9 10 6 2
5 7 5 4 5 4 3 4 2 1 1 2 2 1 1 2 2 4 9 9 11 5 5 9 14 13 11 7 12 12 9 7 8 8 8 8 8 7 8 7 5 7 6
5 6 5 5 4 3 2 1 1 0 1 2 2 1 1 1 1 1 2 5 9 6 8 9 10 8 7 5 5 5 4 6 8 8 7 5 6 8 6 6 6 7 4
4 4 4 4 4 3 2 2 2 1 2 1 1 1 1 2 2 4 6 5 5 6 7 6 6 6 6 4 3 3 3 4 6 4 7 7 7 7 6 7 5 6 3
6 4 3 5 4 4 3 2 2 3 2 3 2 2 1 2 4 7 9 11 13 12 3 6 6 6 7 6 5 3 2 3 4 5 6 7 8 8 7 6 4 7 7
6 6 4 3 3 4 3 4 2 1 1 2 2 0 3 1 6 8 9 12 14 8 3 4 5 6 6 5 5 4 4 2 3 5 6 6 6 6 9 8 7 8 5
6 6 3 3 3 4 4 3 2 2 1 1 2 1 1 2 4 9 9 8 6 4 3 5 5 5 6 5 5 4 3 4 3 4 5 5 5 7 7 7 7 7 7
6 5 3 1 2 2 3 2 2 1 2 2 1 1 1 4 6 9 13 2 4 4 4 4 4 4 5 5 5 4 5 5 4 4 4 5 5 5 4 5 5 6 7
5 7 3 1 2 1 1 2 2 2 1 1 2 2 1 2 2 3 4 3 4 4 4 4 5 5 5 5 5 6 5 5 5 4 4 4 5 5 5 6 5 6 3
4 4 4 1 1 2 2 2 2 2 2 2 2 2 4 2 3 4 5 4 4 4 5 5 5 5 5 5 5 6 6 5 5 5 5 5 5 6 5 6 5 6 5
3 4 2 1 1 2 2 2 2 1 1 2 2 1 4 2 3 4 4 4 4 5 5 5 5 6 6 7 7 6 6 7 6 6 6 6 6 6 6 6 6 5 6
4 4 3 2 2 2 2 2 1 1 0 2 1 1 2 3 3 3 4 4 4 5 5 5 5 5 5 6 7 7 8 8 8 8 8 8 7 7 7 7 7 6 7
3 4 4 3 2 2 3 2 2 3 3 3 3 3 2 1 2 3 3 3 4 4 5 5 5 6 6 6 5 6 5 6 7 9 10 8 7 8 7 7 8 9 8
3 3 3 2 1 2 3 3 3 3 3 3 3 3 3 4 4 4 4 3 3 3 4 2 3 6 7 8 7 7 8 10 8 9 7 8 9 11 8 7 8 7 7
4 3 2 2 2 2 3 3 3 3 4 4 4 4 4 5 5 5 5 6 6 6 7 6 7 9 8 6 5 4 7 9 9 10 8 7 7 7 7 9 11 8 9
Wind_Direction
254 245 249 261 251 255 244 244 238 236 212 214 212 209 208 207 202 210 221 216 229 242 237 248 259 243 242 228 230 201 197 169 157 114 128 145 137 137 129 133 126 118 115
245 230 249 285 309 277 268 268 257 244 220 219 200 205 201 198 192 211 224 233 227 205 227 248 261 263 274 258 202 206 201 169 150 142 147 138 136 142 138 138 124 114 120
146 127 310 291 275 264 260 254 251 246 242 228 207 205 204 196 197 220 221 214 209 194 201 241 263 270 293 292 200 170 147 134 144 142 137 131 125 137 131 120 121 117 121
124 147 244 258 267 280 284 280 268 246 228 222 218 207 211 204 202 210 211 202 196 195 187 233 274 277 270 234 180 137 130 128 131 128 134 132 137 145 133 133 132 130 126
172 253 284 302 303 300 294 281 275 251 247 249 233 239 217 216 214 215 199 196 194 179 177 210 251 267 271 254 170 142 137 131 134 135 137 138 141 148 154 152 141 132 123
225 261 296 313 306 288 286 285 284 269 248 254 242 241 227 221 218 194 188 187 190 174 175 205 233 253 253 225 83 149 146 140 144 145 147 152 157 153 146 153 148 153 143
233 267 283 288 288 283 290 299 295 289 271 270 250 231 233 229 217 204 195 180 179 177 175 181 201 172 179 179 114 147 144 149 152 150 152 162 161 168 155 155 162 161 152
260 271 276 276 280 284 283 285 283 279 263 248 224 212 218 229 219 202 194 183 176 176 177 178 181 163 164 155 136 136 147 147 152 157 166 170 169 166 162 154 150 123 101
255 263 271 288 293 291 295 293 281 268 250 225 212 216 212 223 204 203 178 179 175 178 179 181 180 173 174 143 129 141 148 154 172 151 154 147 141 157 154 138 150 145 134
262 272 300 302 302 300 294 291 278 267 289 295 278 249 227 236 206 199 184 183 178 170 171 180 184 179 167 164 139 138 150 163 143 121 131 135 152 168 165 170 158 161 134
276 306 288 290 289 287 293 315 338 317 323 333 325 321 294 250 223 206 193 186 183 165 167 171 169 172 162 172 159 161 169 151 151 133 131 143 154 166 168 165 177 168 156
267 260 278 268 270 272 296 312 325 324 329 323 326 342 355 320 242 214 200 194 164 160 171 157 157 164 163 164 153 146 140 133 136 138 141 149 160 170 174 162 171 165 82
239 253 259 275 287 280 284 277 287 330 325 298 299 306 349 337 325 255 209 170 157 144 153 155 144 146 149 153 146 140 131 135 144 149 158 164 168 156 148 133 99 101 74
269 269 254 236 244 265 272 260 213 294 270 270 280 277 288 290 342 39 104 135 127 108 124 137 141 137 132 126 118 125 130 149 155 158 154 128 122 142 156 158 157 154 120
280 270 248 226 214 203 218 209 257 248 215 241 253 244 231 271 240 169 145 143 143 135 123 125 135 134 132 124 94 105 113 130 132 132 146 144 145 149 152 158 143 156 133
308 306 287 238 192 175 169 223 215 231 246 235 235 235 224 262 191 177 164 152 143 137 117 145 142 144 145 144 145 139 145 151 138 133 145 151 157 162 153 160 143 177 166
306 304 296 251 148 156 165 209 212 273 40 255 227 252 220 279 190 189 182 157 148 131 120 137 144 148 146 146 144 154 163 151 120 129 145 147 146 149 153 166 167 164 147
300 281 265 245 199 184 187 182 170 204 225 288 304 271 182 190 195 174 172 141 150 91 127 145 146 141 148 151 153 154 144 133 125 138 133 138 144 150 149 158 164 160 160
311 305 292 273 266 181 144 159 173 184 217 214 262 344 30 146 158 166 159 130 165 142 141 140 148 152 154 150 146 145 151 155 149 144 146 152 148 145 146 148 142 143 131
319 328 308 219 143 90 136 162 168 199 190 240 250 208 150 105 135 151 180 151 158 143 149 150 150 147 149 151 152 149 141 145 147 147 148 141 139 151 155 153 155 161 167
319 326 335 306 166 156 163 184 190 208 201 201 228 220 195 165 162 173 176 168 168 159 163 155 155 156 155 153 155 160 155 153 159 156 158 160 158 165 161 161 161 171 167
309 307 307 281 196 180 180 169 178 192 213 224 229 235 206 181 167 177 187 176 167 164 166 167 167 168 171 170 165 160 166 173 173 172 172 170 171 169 167 164 166 169 171
291 297 279 244 223 177 187 163 152 166 257 263 251 212 170 188 178 178 181 174 168 170 161 162 170 165 167 175 171 171 173 178 178 172 171 169 171 174 175 177 175 178 182
270 277 265 231 203 173 163 148 119 96 87 66 41 29 9 210 176 172 169 162 167 165 168 168 174 173 175 176 173 171 172 165 167 175 169 167 170 170 175 178 182 186 186
293 268 247 202 153 170 131 115 99 85 81 76 55 34 21 25 50 49 45 57 75 80 75 122 148 164 172 171 168 173 174 168 169 165 169 170 171 173 176 179 179 183 181
291 279 225 176 136 128 123 109 88 88 82 65 66 55 42 44 50 47 44 53 59 57 55 48 52 64 68 65 76 136 177 176 173 169 166 168 168 172 176 182 183 186 191